Location: Pedholt
(56.0260°N, 10.2097°E)
Time: 02:48:22
(UTC+00:00)

SR - Pass Details

Date: 31 July 2021
Orbit: 581 x 873 km, 66.7° (Epoch: 27 September)

Event Time Altitude Azimuth Distance (km) Brightness Sun altitude
Rises 06:18:26 0° 213° (SSW) 3,426 ? 22.3°
Reaches altitude 10° 06:20:58 10° 212° (SSW) 2,469 ? 22.7°
Maximum altitude 06:26:40 72° 129° (SE) 858 ? 23.5°
Drops below altitude 10° 06:31:59 10° 46° (NE) 2,318 ? 24.2°
Sets 06:34:18 0° 45° (NE) 3,201 ? 24.6°
